Flag for U.S.A. Weather past 2 weeks in Montgomery, Alabama, U.S.A.

Now
54 °F

Overcast.


Feels Like: 51 °F
Forecast: 41 / 62 °F
Wind: 8 mph from Southeast

Location: Maxwell Air Force Base / Montgomery

Current Time: Mar 29, 2015 at 12:04:33 PM

Latest Report: Mar 29, 2015 at 10:58 AM


Visibility: 10 mi

Pressure: 30.39 "Hg

Humidity: 28%

Dew point: 21 °F

Location of MontgomeryLocation

Historic Weather in Montgomery — Graph

°F

Montgomery temperature yesterday

Maximum temperature yesterday: 53 °F (at 12:58 PM)
Minimum temperature yesterday: 37 °F (at 6:58 AM)
Average temperature yesterday: 46 °F

Past Weeks' High & Low Weather Summary

 TemperatureHumidityPressure
High82 °F (Mar 16, 3:58 PM)100% (Mar 14, 10:03 AM)30.41 "Hg (Mar 14, 10:03 AM)
Low37 °F (Mar 28, 6:58 AM)28% (Mar 29, 10:58 AM)29.78 "Hg (Mar 26, 5:58 PM)
Average62 °F76%30.07 "Hg
* Reported Mar 14 10:03 AM — Mar 29 10:58 AM, Montgomery, Weather by CustomWeather, © 2015

Note: Actual official high and low records may vary slightly from our data, if they occured in-between our weather recording intervals... More about our weather records

Advertising

Montgomery weather history for previous 24 hours

 ConditionsComfort  
Time TempWeatherWind HumidityBarometerVisibility
10:58 AM
Sun, Mar 29
54 °FOvercast.8 mph28%30.39 "Hg10 mi
9:58 AM51 °FOvercast.8 mph30%30.41 "Hg10 mi
8:58 AM48 °FOvercast.8 mph33%30.40 "Hg10 mi
7:58 AM46 °FOvercast.6 mph39%30.39 "Hg10 mi
6:58 AM45 °FOvercast.6 mph42%30.38 "Hg10 mi
5:58 AM46 °FPassing clouds.7 mph39%30.36 "Hg10 mi
4:58 AM47 °FOvercast.6 mph42%30.34 "Hg10 mi
3:58 AM47 °FOvercast.5 mph53%30.33 "Hg10 mi
2:58 AM47 °FOvercast.5 mph57%30.32 "Hg10 mi
1:58 AM47 °FOvercast.2 mph57%30.32 "Hg10 mi
12:58 AM46 °FOvercast.5 mph61%30.32 "Hg10 mi
11:58 PM
Sat, Mar 28
46 °FOvercast.3 mph55%30.32 "Hg10 mi
10:58 PM47 °FOvercast.3 mph52%30.31 "Hg10 mi
9:58 PM47 °FOvercast.5 mph51%30.30 "Hg10 mi
8:58 PM48 °FMostly cloudy.5 mph47%30.28 "Hg10 mi
7:58 PM48 °FMore clouds than sun.3 mph52%30.26 "Hg10 mi
6:58 PM49 °FOvercast.3 mph49%30.24 "Hg10 mi
5:58 PM50 °FOvercast.7 mph39%30.23 "Hg10 mi
4:58 PM51 °FOvercast.7 mph37%30.23 "Hg10 mi
3:58 PM51 °FOvercast.9 mph35%30.21 "Hg10 mi
2:58 PM52 °FOvercast.10 mph31%30.23 "Hg10 mi
1:58 PM53 °FOvercast.13 mph35%30.23 "Hg10 mi
12:58 PM53 °FScattered clouds.9 mph36%30.25 "Hg10 mi
Weather by CustomWeather, © 2015

See weather overviewHow to use our weather pages